Chesapeake, VA

8:40 PM EDT on July 26, 2017 (GMT -0400)
Chesapeake Regional

Weather History for KCPK - February, 2013

Change the Weather History Date:

Saturday, February 9, 2013

  Actual Average (KSFQ) Record (KSFQ)
Temperature  
Mean Temperature 39 °F -  
Max Temperature 48 °F 47 °F 72 °F (1990)
Min Temperature 30 °F 27 °F 15 °F (1977)
Degree Days  
Heating Degree Days 26    
Moisture  
Dew Point 24 °F    
Average Humidity 53    
Maximum Humidity 80    
Minimum Humidity 30    
Precipitation  
Precipitation 0.00 in - - ()
Sea Level Pressure  
Sea Level Pressure 30.18 in    
Wind  
Wind Speed 10 mph (NW)    
Max Wind Speed 20 mph    
Max Gust Speed 29 mph    
Visibility 10 miles    
Events      
Averages and records for this station are not official NWS values.
T = Trace of Precipitation, MM = Missing Value Source: NWS Daily Summary

Daily Weather History Graph

Daily Weather History Graph

Search for Another Location

Airport or City:

Trip Planner

Search our weather history database for the weather conditions in past years. The results will help you decide how hot, cold, wet, or windy it might be!

Date:

Astronomy

Feb. 09, 2013 Rise Set
Actual Time 6:59 AM EST 5:39 PM EST
Civil Twilight 6:32 AM EST 6:06 PM EST
Nautical Twilight 6:02 AM EST 6:37 PM EST
Astronomical Twilight 5:32 AM EST 7:07 PM EST
Moon 6:09 AM EST (2/9) 5:19 PM EST (2/9)
Length of Visible Light 11h 33m
Length of Day
10h 40m
Waning Crescent, 0% of the Moon is Illuminated
Feb 9
Waning Crescent
Feb 10
New
Feb 17
First Quarter
Feb 25
Full
Mar 4
Last Quarter

Hourly Weather History & Observations

Time (EST) Temp. Windchill Dew Point Humidity Pressure Visibility Wind Dir Wind Speed Gust Speed Precip Events Conditions
12:15 AM 42.8 °F 37.0 °F 32.0 °F 66% 29.93 in 10.0 mi West 10.4 mph - N/A   Clear
12:35 AM 42.8 °F 36.2 °F 30.2 °F 61% 29.94 in 10.0 mi West 12.7 mph 19.6 mph N/A   Clear
12:55 AM 42.8 °F 37.0 °F 30.2 °F 61% 29.94 in 10.0 mi West 10.4 mph - N/A   Clear
1:15 AM 41.0 °F 35.8 °F 30.2 °F 65% 29.94 in 10.0 mi West 8.1 mph - N/A   Clear
1:35 AM 41.0 °F 33.1 °F 30.2 °F 65% 29.94 in 10.0 mi West 15.0 mph 18.4 mph N/A   Clear
1:55 AM 41.0 °F 35.2 °F 28.4 °F 61% 29.95 in 10.0 mi West 9.2 mph - N/A   Clear
2:15 AM 39.2 °F 33.6 °F 28.4 °F 65% 29.96 in 10.0 mi WNW 8.1 mph - N/A   Clear
2:35 AM 39.2 °F 33.6 °F 28.4 °F 65% 29.97 in 10.0 mi West 8.1 mph - N/A   Clear
2:55 AM 39.2 °F 33.6 °F 28.4 °F 65% 29.98 in 10.0 mi West 8.1 mph - N/A   Clear
3:15 AM 37.4 °F 32.1 °F 28.4 °F 70% 29.98 in 10.0 mi West 6.9 mph - N/A   Clear
3:35 AM 37.4 °F 31.4 °F 28.4 °F 70% 29.99 in 10.0 mi WNW 8.1 mph - N/A   Clear
3:55 AM 37.4 °F - 28.4 °F 70% 30.01 in 10.0 mi Calm Calm - N/A   Scattered Clouds
4:15 AM 37.4 °F 32.8 °F 28.4 °F 70% 30.02 in 10.0 mi WNW 5.8 mph - N/A   Scattered Clouds
4:35 AM 37.4 °F 32.1 °F 26.6 °F 65% 30.02 in 10.0 mi NW 6.9 mph - N/A   Clear
4:55 AM 37.4 °F 29.3 °F 24.8 °F 60% 30.03 in 10.0 mi NW 12.7 mph 18.4 mph N/A   Clear
5:15 AM 37.4 °F 29.8 °F 24.8 °F 60% 30.04 in 10.0 mi NW 11.5 mph 17.3 mph N/A   Clear
5:35 AM 37.4 °F 30.3 °F 24.8 °F 60% 30.06 in 10.0 mi WNW 10.4 mph 16.1 mph N/A   Clear
5:55 AM 37.4 °F 31.4 °F 24.8 °F 60% 30.07 in 10.0 mi NW 8.1 mph - N/A   Clear
6:15 AM 37.4 °F 30.8 °F 24.8 °F 60% 30.08 in 10.0 mi NW 9.2 mph - N/A   Clear
6:35 AM 35.6 °F 28.6 °F 24.8 °F 65% 30.09 in 10.0 mi WNW 9.2 mph - N/A   Clear
6:55 AM 35.6 °F 29.9 °F 24.8 °F 65% 30.12 in 10.0 mi WNW 6.9 mph - N/A   Clear
7:15 AM 35.6 °F 28.6 °F 23.0 °F 60% 30.13 in 10.0 mi NW 9.2 mph - N/A   Clear
7:35 AM 35.6 °F 28.0 °F 23.0 °F 60% 30.15 in 10.0 mi WNW 10.4 mph 17.3 mph N/A   Clear
7:55 AM 35.6 °F 28.6 °F 24.8 °F 65% 30.16 in 10.0 mi WNW 9.2 mph - N/A   Clear
8:15 AM 37.4 °F 30.3 °F 23.0 °F 56% 30.18 in 10.0 mi WNW 10.4 mph 17.3 mph N/A   Clear
8:35 AM 37.4 °F 27.8 °F 23.0 °F 56% 30.19 in 10.0 mi WNW 17.3 mph 21.9 mph N/A   Clear
8:55 AM 37.4 °F 29.3 °F 21.2 °F 52% 30.20 in 10.0 mi NW 12.7 mph 21.9 mph N/A   Clear
9:15 AM 39.2 °F 32.0 °F 21.2 °F 49% 30.20 in 10.0 mi WNW 11.5 mph 23.0 mph N/A   Scattered Clouds
9:35 AM 39.2 °F 31.2 °F 21.2 °F 49% 30.21 in 10.0 mi NW 13.8 mph 23.0 mph N/A   Scattered Clouds
9:55 AM 39.2 °F 30.2 °F 21.2 °F 49% 30.21 in 10.0 mi WNW 17.3 mph 24.2 mph N/A   Scattered Clouds
10:15 AM 39.2 °F 29.8 °F 21.2 °F 49% 30.21 in 10.0 mi WNW 18.4 mph 26.5 mph N/A   Clear
10:35 AM 41.0 °F 32.5 °F 23.0 °F 49% 30.22 in 10.0 mi NW 17.3 mph 21.9 mph N/A   Clear
10:55 AM 41.0 °F 33.1 °F 21.2 °F 45% 30.22 in 10.0 mi WNW 15.0 mph - N/A   Clear
11:15 AM 42.8 °F 35.4 °F 23.0 °F 46% 30.22 in 10.0 mi NW 15.0 mph 24.2 mph N/A   Clear
11:35 AM 42.8 °F 34.8 °F 24.8 °F 49% 30.22 in 10.0 mi NW 17.3 mph 23.0 mph N/A   Clear
11:55 AM 44.6 °F 38.1 °F 23.0 °F 43% 30.22 in 10.0 mi WNW 13.8 mph 24.2 mph N/A   Clear
12:15 PM 44.6 °F 38.4 °F 24.8 °F 46% 30.21 in 10.0 mi WNW 12.7 mph 23.0 mph N/A   Clear
12:35 PM 44.6 °F 38.4 °F 24.8 °F 46% 30.22 in 10.0 mi WNW 12.7 mph 19.6 mph N/A   Clear
12:55 PM 46.4 °F 40.1 °F 24.8 °F 43% 30.21 in 10.0 mi WNW 15.0 mph 23.0 mph N/A   Clear
1:15 PM 46.4 °F 39.8 °F 23.0 °F 40% 30.21 in 10.0 mi NW 16.1 mph 21.9 mph N/A   Clear
1:35 PM 46.4 °F 39.2 °F 21.2 °F 37% 30.21 in 10.0 mi NW 18.4 mph 27.6 mph N/A   Clear
1:55 PM 46.4 °F 39.5 °F 21.2 °F 37% 30.21 in 10.0 mi NW 17.3 mph 25.3 mph N/A   Clear
2:15 PM 48.2 °F - 21.2 °F 34% 30.21 in 10.0 mi NW 19.6 mph 28.8 mph N/A   Clear
2:35 PM 48.2 °F - 23.0 °F 37% 30.21 in 10.0 mi West 13.8 mph 20.7 mph N/A   Clear
2:55 PM 48.2 °F - 21.2 °F 34% 30.22 in 10.0 mi NW 15.0 mph 20.7 mph N/A   Clear
3:15 PM 48.2 °F - 21.2 °F 34% 30.22 in 10.0 mi WNW 12.7 mph 19.6 mph N/A   Clear
3:35 PM 48.2 °F - 19.4 °F 32% 30.22 in 10.0 mi NW 13.8 mph 17.3 mph N/A   Clear
3:55 PM 48.2 °F - 19.4 °F 32% 30.23 in 10.0 mi NW 10.4 mph 19.6 mph N/A   Clear
4:15 PM 48.2 °F - 19.4 °F 32% 30.24 in 10.0 mi NW 13.8 mph 19.6 mph N/A   Clear
4:35 PM 48.2 °F - 19.4 °F 32% 30.24 in 10.0 mi NNW 11.5 mph - N/A   Clear
4:55 PM 48.2 °F - 17.6 °F 30% 30.25 in 10.0 mi NW 10.4 mph 17.3 mph N/A   Clear
5:15 PM 46.4 °F 42.9 °F 19.4 °F 34% 30.26 in 10.0 mi NW 6.9 mph - N/A   Clear
5:35 PM 46.4 °F 43.5 °F 19.4 °F 34% 30.26 in 10.0 mi NNW 5.8 mph - N/A   Clear
5:55 PM 44.6 °F 43.1 °F 19.4 °F 37% 30.28 in 10.0 mi NW 3.5 mph - N/A   Clear
6:15 PM 44.6 °F 42.2 °F 19.4 °F 37% 30.28 in 10.0 mi NNW 4.6 mph - N/A   Clear
6:35 PM 42.8 °F - 19.4 °F 39% 30.29 in 10.0 mi Calm Calm - N/A   Clear
6:55 PM 42.8 °F 41.1 °F 21.2 °F 42% 30.31 in 10.0 mi North 3.5 mph - N/A   Clear
7:15 PM 42.8 °F - 21.2 °F 42% 30.32 in 10.0 mi Calm Calm - N/A   Clear
7:35 PM 41.0 °F 39.0 °F 21.2 °F 45% 30.32 in 10.0 mi North 3.5 mph - N/A   Clear
7:55 PM 41.0 °F - 19.4 °F 42% 30.33 in 10.0 mi Calm Calm - N/A   Clear
8:15 PM 41.0 °F 38.0 °F 19.4 °F 42% 30.34 in 10.0 mi North 4.6 mph - N/A   Clear
8:35 PM 37.4 °F 34.9 °F 23.0 °F 56% 30.34 in 10.0 mi North 3.5 mph - N/A   Clear
8:55 PM 39.2 °F 37.0 °F 23.0 °F 52% 30.34 in 10.0 mi North 3.5 mph - N/A   Clear
9:15 PM 37.4 °F - 24.8 °F 60% 30.35 in 10.0 mi Calm Calm - N/A   Clear
9:35 PM 33.8 °F 29.6 °F 26.6 °F 75% 30.35 in 10.0 mi NNW 4.6 mph - N/A   Clear
9:55 PM 35.6 °F - 24.8 °F 65% 30.36 in 10.0 mi Calm Calm - N/A   Clear
10:15 PM 35.6 °F - 24.8 °F 65% 30.36 in 10.0 mi Calm Calm - N/A   Clear
10:35 PM 33.8 °F - 26.6 °F 75% 30.37 in 10.0 mi Calm Calm - N/A   Clear
10:55 PM 33.8 °F - 24.8 °F 70% 30.37 in 10.0 mi Calm Calm - N/A   Clear
11:15 PM 32.0 °F - 26.6 °F 80% 30.37 in 10.0 mi Calm Calm - N/A   Clear
11:35 PM 30.2 °F 25.4 °F 24.8 °F 80% 30.37 in 10.0 mi NNW 4.6 mph - N/A   Clear
11:55 PM 33.8 °F - 24.8 °F 70% 30.38 in 10.0 mi Calm Calm - N/A   Clear